#timestamp,LO_Frequency,Hit,StdDev 
1541538015.3,286047005.0,N
1541538035.1,286047007.5,N
1541538036.0,286047007.5,N
1541538055.8,286047002.9,N
1541538075.7,286047005.8,N
1541538095.5,286047007.4,N
1541538115.3,286047007.0,N
1541538135.2,286047006.9,N
1541538155.0,286047006.0,N
1541538155.9,286047006.0,N
1541538175.8,286047005.6,N
1541538195.6,286047005.1,N
1541538215.4,286047003.1,N
1541538235.3,286047005.2,N
1541538255.1,286047005.0,N
1541538275.9,286047008.2,Y
1541538295.7,286047005.5,P
1541538315.5,286047005.8,P
1541538335.4,286047005.3,P
1541538355.2,286047004.5,Y
1541538375.0,286047001.2,P
1541538375.9,286047001.2,N
1541538395.8,286046998.3,N
1541538415.6,286047000.5,N
1541538435.5,286046999.7,N
1541538455.3,286046999.7,N
1541538475.1,286047001.0,N
1541538495.9,286047001.1,N
1541538515.7,286047002.5,N
1541538535.5,286047004.4,N
1541538555.4,286047002.9,N
1541538575.2,286047004.2,N
1541538595.1,286047001.6,N
1541538596.0,286047001.6,N
1541538615.8,286047002.1,N
1541538635.6,286047002.8,N
1541538655.5,286047002.3,N
1541538675.3,286047001.3,N
1541538695.2,286047002.1,N
1541538715.9,286047004.2,N
1541538735.7,286047001.4,N
1541538755.6,286047001.6,N
1541538775.4,286047003.3,N
1541538795.2,286047005.0,Y
1541538815.1,286047003.9,P
1541538816.0,286047003.9,P
1541538835.8,286047001.6,N
1541538855.7,286047002.4,N
1541538875.5,286047001.6,N
1541538895.3,286047005.6,Y
1541538915.2,286047004.3,P
1541538935.0,286047001.3,N
1541538935.9,286047001.3,N
1541538955.8,286047002.5,N
1541538975.6,286047002.5,N
1541538995.4,286047002.5,N
1541539015.3,286047000.6,N
1541539035.1,286047001.9,N
1541539055.9,286046999.8,N
1541539075.7,286047002.6,N
1541539095.5,286047000.2,N
1541539115.4,286047002.4,N
1541539135.2,286047000.4,N
1541539155.0,286046999.7,N
1541539186.0,286047004.3,E
1541539195.9,286047000.5,N
1541539215.7,286046997.5,P
1541539235.6,286046995.2,P
1541539255.4,286046993.5,Y
1541539275.3,286046997.7,P
1541539295.1,286046998.0,P
1541539296.0,286046998.0,P
1541539315.8,286046995.0,Y
1541539335.7,286047000.6,P
1541539355.5,286046999.9,N
1541539375.4,286047002.6,N
1541539395.2,286047001.6,N
1541539415.0,286047003.5,N
1541539415.9,286047003.5,N
1541539435.8,286047005.6,N
1541539455.6,286047007.1,Y
1541539475.4,286047004.3,P
1541539495.3,286047001.9,N
1541539515.1,286047001.0,N
1541539535.9,286047001.8,N
1541539555.7,286047004.4,Y
1541539575.5,286047000.5,P
1541539595.4,286046999.8,N
1541539615.2,286047000.8,N
1541539635.1,286047001.6,N
1541539636.0,286047001.6,N
1541539655.8,286047002.3,N
1541539675.6,286047000.3,N
1541539695.5,286046999.9,N
1541539715.3,286046999.9,N
1541539735.2,286047000.2,N
1541539755.9,286047001.6,N
1541539775.7,286047003.5,Y
1541539795.6,286047001.4,P
1541539815.4,286047003.3,P
1541539835.2,286047004.0,P
1541539855.1,286047003.9,Y
1541539856.0,286047003.9,P
1541539875.8,286047000.1,N
1541539895.7,286047000.4,N
1541539915.5,286046998.1,N
1541539935.3,286047000.9,N
1541539955.2,286047000.7,N
1541539975.0,286046999.8,N
1541539975.9,286046999.8,N
1541539995.8,286047002.3,N
1541540015.6,286047000.1,N
1541540035.4,286047004.3,N
1541540055.3,286047002.6,N
1541540075.1,286047000.9,N
1541540095.9,286047002.8,N
1541540115.7,286046999.7,N
1541540135.5,286047000.9,N
1541540155.4,286047001.9,N
1541540175.2,286047001.2,N
1541540195.0,286047000.7,N
1541540195.9,286047000.7,N
1541540215.8,286047000.2,N
1541540235.6,286047001.0,N
1541540255.5,286046999.7,N
1541540275.3,286047002.6,N
1541540295.1,286047003.1,N
1541540315.9,286047005.7,Y
1541540335.7,286047001.6,P
1541540355.6,286047002.0,P
1541540375.4,286047003.9,P
1541540395.2,286047002.2,N
1541540415.1,286046999.7,N
1541540416.0,286046999.7,N
1541540435.8,286047000.1,N
1541540455.6,286047001.1,N
1541540475.5,286047000.0,N
1541540495.3,286047002.1,N
1541540515.2,286046999.8,N
1541540535.9,286047002.8,N
1541540555.7,286047003.9,Y
1541540575.6,286046999.9,P
1541540595.4,286047000.7,N
1541540615.2,286046998.3,P
1541540635.1,286047000.2,N
1541540636.0,286047000.2,N
1541540655.8,286046999.9,N
1541540675.7,286047000.0,N
1541540695.5,286047001.8,N
1541540715.3,286047001.9,N
1541540735.2,286047001.6,N
1541540755.0,286046999.8,N
1541540755.9,286046999.8,N
1541540775.8,286047002.1,N
1541540795.6,286047003.6,Y
1541540815.4,286047001.6,P
1541540835.3,286046999.8,N
1541540855.1,286047004.3,P
1541540875.8,286047004.4,N
1541540895.7,286047001.7,N
1541540915.5,286047005.7,Y
1541540935.4,286047001.5,P
1541540955.2,286047000.1,N
1541540975.0,286047000.1,N
1541540975.9,286047000.1,N
1541540995.8,286047002.8,Y
1541541015.6,286047002.1,P
1541541035.5,286047002.7,P
1541541055.3,286046999.7,N
1541541075.1,286047000.3,N
1541541095.9,286047000.7,N
1541541115.7,286047001.0,N
1541541135.5,286047000.1,N
1541541155.4,286047001.3,N
1541541175.2,286047001.7,N
1541541195.1,286047003.9,Y
1541541196.0,286047003.9,P
1541541215.8,286047002.3,N
1541541235.6,286047000.0,N
1541541255.5,286047000.1,N
1541541275.3,286047000.1,N
1541541295.2,286047000.1,N
1541541315.9,286046998.9,N
1541541335.7,286047000.2,N
1541541355.6,286046999.8,N
1541541375.4,286046999.7,N
1541541395.2,286047005.8,Y
1541541415.1,286047001.4,P
1541541416.0,286047001.4,P
1541541435.8,286047004.1,P
1541541455.7,286047002.0,N
1541541475.5,286047002.4,N
1541541495.3,286047000.7,N
1541541515.2,286047001.9,N
1541541535.0,286046999.9,N
1541541535.9,286046999.9,N
1541541555.8,286047002.0,N
1541541575.6,286047003.8,Y
1541541595.4,286047000.2,P
